AirNav   ATP
 
 1171 users online  

38NJ WJRZ Radio Heliport
Manahawkin, New Jersey, USA

GOING TO MANAHAWKIN?


FAA INFORMATION EFFECTIVE 21 JUNE 2018

Location

FAA Identifier: 38NJ
Lat/Long: 39-41-57.4290N / 074-14-03.5050W
39-41.957150N / 074-14.058417W
39.6992858 / -74.2343069
(estimated)
Elevation: 11 ft. / 3 m (estimated)
Variation: 12W (1985)
From city: 1 mile E of MANAHAWKIN, NJ
Time zone: UTC -4 (UTC -5 during Standard Time)
Zip code: 08050

Heliport Operations

Heliport use: Private use. Permission required prior to landing
Activation date: 11/1982
Control tower: no
ARTCC: WASHINGTON CENTER
FSS: MILLVILLE FLIGHT SERVICE STATION
Attendance: 0500-1900
Wind indicator: yes
Segmented circle: no

Heliport Communications

UNICOM: 123.05
WX AWOS-3PT at MJX (14 nm N): 119.875 (732-797-2542)

Nearby radio navigation aids

VOR radial/distance  VOR name  Freq  Var
CYNr138/11.5COYLE VORTAC113.4010W
ACYr057/21.5ATLANTIC CITY VORTAC108.6010W
GXUr150/25.0MC GUIRE VORTAC110.6012W
RBVr168/32.5ROBBINSVILLE VORTAC113.8010W
VCNr084/35.2CEDAR LAKE VOR/DME115.2010W
COLr196/36.9COLTS NECK VOR/DME115.4011W

 
NDB name  Hdg/Dist  Freq  Var  ID
LAKEHURST178/21.339611WNEL -. . .-..

Heliport Services

Runway Information

Helipad H1

Dimensions: 480 x 200 ft. / 146 x 61 m
Surface: turf, in fair condition
Latitude: 39-41.957150N
Longitude: 074-14.058417W
Elevation: 11.0 ft.
Traffic pattern: leftleft
Markings: none, in fair condition

Heliport Ownership and Management from official FAA records

Ownership: Privately-owned
Owner: JERSEY SHORE BROADCASTING
1001 BEACH AVE. PO BOX 1000
MANAHAWKIN, NJ 08050
Phone 609-597-1100
Manager: J. KNOX, JR. & L. DE BOCK
1001 BEACH AVE. PO BOX 1000
MANHAWKIN, NJ 08050
Phone 609-597-1100

Heliport Operational Statistics

Aircraft based on the field: 1
Helicopters: 1
    

Additional Remarks

A52-H1 340' RADIO TOWER (MKD/LGTD) NEAR HELIPAD.
MRKD/LGTD PLINE NORTH & WEST OF PAD.

Instrument Procedures

There are no published instrument procedures at 38NJ.

Some nearby airports with instrument procedures:

31E - Eagles Nest Airport (4 nm SW)
KMJX - Ocean County Airport (14 nm N)
KNEL - Lakehurst Maxfield Field Airport (21 nm N)
KACY - Atlantic City International Airport (21 nm SW)
N12 - Lakewood Airport (22 nm N)
 
Loc | Ops | Rwys | IFR | FBO | Links
Com | Nav | Svcs | Stats | Notes


 
Area around 38NJ (WJRZ Radio Heliport)
 
Road maps at: MapQuest Bing Google
 
Aerial photo
No photo
 
Sectional chart

 
Airport distance calculator
Flying to WJRZ Radio Heliport? Find the distance to fly.

From to 38NJ

Sunrise and sunset
Times for 17-Jul-2018
 Local
(UTC-4)
 Zulu
(UTC)
Morning civil twilight05:1309:13
Sunrise05:4409:44
Sunset20:2200:22
Evening civil twilight20:5300:53

Current date and time
Zulu (UTC)  17-Jul-2018 23:51:00
Local (UTC-4)  17-Jul-2018 19:51:00
 
METAR
KMJX 
14nm N 
AWOS-3 119.875 732-244-4450
172341Z AUTO 13004KT 10SM -RA SCT003 BKN031 OVC038 22/21 A2985 RMK AO2 LTG DSNT SE P0008
KNEL 
20nm N 
172331Z 10SM BKN004 BKN035 OVC043 A2984 RMK AO2 PNO
KACY 
21nm SW 
172339Z 06008KT 10SM FEW004 BKN070 OVC085 24/24 A2983 RMK AO2 LTG DSNT S RAE35 P0015 T02390239
KWRI 
25nm NW 
172321Z AUTO 11006KT 10SM SCT004 BKN130 22/22 A2981 RMK AO2 SLP093 $
TAF
KACY 
21nm SW 
171725Z 1718/1818 22012G22KT P6SM SCT040 TEMPO 1720/1724 3SM TSRA BKN040CB FM180200 27008KT P6SM VCSH BKN040 FM180400 34007KT P6SM SCT050 FM181500 33012KT P6SM FEW050
KWRI 
25nm NW 
171839Z 1718/1824 22012KT 9999 FEW020 SCT250 QNH2972INS TEMPO 1718/1719 23015G25KT BECMG 1718/1719 21012KT 8000 -SHRA BKN020 QNH2970INS TEMPO 1719/1801 24015G25KT 3200 TSRA BR FEW005 BKN015CB OVC020 BECMG 1802/1803 34006KT 6000 BR BKN010 OVC030 QNH2975INS BECMG 1807/1808 34009KT 9999 NSW FEW050 QNH2978INS TX36/1720Z TN21/1809Z
NOTAMs
Click for the latest NOTAMs
NOTAMs are issued by the DoD/FAA and will open in a separate window not controlled by AirNav.

 

 
 

Would you like to see your business listed on this page?

 If your business provides an interesting product or service to pilots, flight crews, aircraft, or users of the WJRZ Radio Heliport, you should consider listing it here.  To start the listing process, click on the button below
 
Add a business
 

Other Pages about WJRZ Radio Heliport

Update a link
 
Copyright © AirNav, LLC. All rights reserved. Privacy Policy  Contact